| time (UTC) | temp C | wind direction | speed KPH | gust KPH | rain 1hr cm | rain 24hr cm | rain mn cm | humidity % | barometer mb |
| 20260510154234 | 21 | 352 | 14.5 | 24.1 | 0.00 | 0.00 | 0.00 | 48 | 1018.4 |
| 20260510153729 | 21 | 313 | 19.3 | 24.1 | 0.00 | 0.00 | 0.00 | 48 | 1018.5 |
| 20260510153225 | 21 | 337 | 24.1 | 38.6 | 0.00 | 0.00 | 0.00 | 48 | 1018.6 |
| 20260510152722 | 21 | 350 | 20.9 | 30.6 | 0.00 | 0.00 | 0.00 | 48 | 1018.5 |
| 20260510152218 | 21 | 324 | 9.7 | 17.7 | 0.00 | 0.00 | 0.00 | 48 | 1018.3 |
| 20260510151715 | 21 | 299 | 11.3 | 16.1 | 0.00 | 0.00 | 0.00 | 48 | 1018.3 |
| 20260510151214 | 21 | 343 | 12.9 | 24.1 | 0.00 | 0.00 | 0.00 | 48 | 1017.9 |
| 20260510150708 | 21 | 343 | 12.9 | 24.1 | 0.00 | 0.00 | 0.00 | 48 | 1017.9 |
| 20260510150204 | 21 | 31 | 20.9 | 33.8 | 0.00 | 0.00 | 0.00 | 48 | 1017.5 |
| 20260510145701 | 22 | 323 | 19.3 | 30.6 | 0.00 | 0.00 | 0.00 | 48 | 1017.4 |
| 20260510145157 | 22 | 0 | 9.7 | 22.5 | 0.00 | 0.00 | 0.00 | 48 | 1016.9 |
| 20260510144654 | 21 | 288 | 27.4 | 35.4 | 0.00 | 0.00 | 0.00 | 47 | 1016.8 |
| 20260510144150 | 22 | 311 | 17.7 | 35.4 | 0.00 | 0.00 | 0.00 | 47 | 1016.7 |
| 20260510143645 | 22 | 12 | 12.9 | 24.1 | 0.00 | 0.00 | 0.00 | 48 | 1016.1 |
| 20260510143142 | 22 | 359 | 12.9 | 17.7 | 0.00 | 0.00 | 0.00 | 52 | 1015.8 |
| 20260510142639 | 22 | 2 | 20.9 | 29.0 | 0.00 | 0.00 | 0.00 | 52 | 1015.8 |
| 20260510142135 | 22 | 315 | 1.6 | 6.4 | 0.00 | 0.00 | 0.00 | 50 | 1015.6 |
| 20260510141632 | 22 | 354 | 8.0 | 14.5 | 0.00 | 0.00 | 0.00 | 47 | 1015.1 |
| 20260510141131 | 22 | 341 | 11.3 | 16.1 | 0.00 | 0.00 | 0.00 | 44 | 1015.0 |
| 20260510140626 | 22 | 27 | 3.2 | 11.3 | 0.00 | 0.00 | 0.00 | 43 | 1015.2 |
| 20260510140126 | 22 | 6 | 9.7 | 20.9 | 0.00 | 0.00 | 0.00 | 40 | 1015.5 |
| 20260510135621 | 22 | 337 | 16.1 | 17.7 | 0.00 | 0.00 | 0.00 | 37 | 1014.9 |
| 20260510135118 | 22 | 305 | 19.3 | 22.5 | 0.00 | 0.00 | 0.00 | 36 | 1014.9 |
| 20260510134615 | 21 | 342 | 6.4 | 9.7 | 0.00 | 0.00 | 0.00 | 36 | 1014.8 |
| 20260510134112 | 21 | 294 | 14.5 | 17.7 | 0.00 | 0.00 | 0.00 | 35 | 1014.7 |
| 20260510133608 | 21 | 306 | 17.7 | 20.9 | 0.00 | 0.00 | 0.00 | 35 | 1014.5 |
| 20260510133104 | 21 | 297 | 9.7 | 14.5 | 0.00 | 0.00 | 0.00 | 35 | 1013.9 |
| 20260510132601 | 21 | 342 | 8.0 | 12.9 | 0.00 | 0.00 | 0.00 | 35 | 1014.0 |
| 20260510132058 | 20 | 312 | 4.8 | 6.4 | 0.00 | 0.00 | 0.00 | 37 | 1013.8 |
| 20260510131555 | 20 | 308 | 6.4 | 14.5 | 0.00 | 0.00 | 0.00 | 37 | 1013.6 |
| 20260510131052 | 20 | 299 | 8.0 | 11.3 | 0.00 | 0.00 | 0.00 | 37 | 1013.4 |
| 20260510130549 | 18 | 306 | 6.4 | 11.3 | 0.00 | 0.00 | 0.00 | 39 | 1013.4 |
| 20260510130046 | 18 | 329 | 3.2 | 3.2 | 0.00 | 0.00 | 0.00 | 40 | 1013.2 |
| 20260510125542 | 18 | 334 | 3.2 | 9.7 | 0.00 | 0.00 | 0.00 | 40 | 1012.9 |
| 20260510125039 | 17 | 320 | 0.0 | 0.0 | 0.00 | 0.00 | 0.00 | 41 | 1012.5 |
| 20260510124536 | 17 | 292 | 0.0 | 0.0 | 0.00 | 0.00 | 0.00 | 41 | 1012.4 |
| 20260510124033 | 17 | 275 | 1.6 | 1.6 | 0.00 | 0.00 | 0.00 | 40 | 1012.3 |
| 20260510123533 | 17 | 269 | 0.0 | 0.0 | 0.00 | 0.00 | 0.00 | 42 | 1012.6 |
| 20260510123029 | 17 | 267 | 1.6 | 3.2 | 0.00 | 0.00 | 0.00 | 42 | 1012.6 |
| 20260510122525 | 16 | 261 | 0.0 | 1.6 | 0.00 | 0.00 | 0.00 | 42 | 1012.5 |
| 20260510122021 | 16 | 257 | 0.0 | 0.0 | 0.00 | 0.00 | 0.00 | 44 | 1012.5 |
| 20260510121518 | 16 | 256 | 0.0 | 0.0 | 0.00 | 0.00 | 0.00 | 46 | 1012.2 |
| 20260510121016 | 16 | 256 | 0.0 | 0.0 | 0.00 | 0.00 | 0.00 | 47 | 1012.3 |
| 20260510120513 | 16 | 256 | 0.0 | 0.0 | 0.00 | 0.00 | 0.00 | 47 | 1012.3 |
| 20260510120009 | 16 | 255 | 0.0 | 1.6 | 0.00 | 0.00 | 0.00 | 46 | 1012.1 |
| 20260510115506 | 17 | 252 | 0.0 | 0.0 | 0.00 | 0.00 | 0.00 | 45 | 1012.1 |
| 20260510115001 | 17 | 252 | 0.0 | 0.0 | 0.00 | 0.00 | 0.00 | 43 | 1011.5 |
| 20260510114458 | 17 | 252 | 0.0 | 0.0 | 0.00 | 0.00 | 0.00 | 44 | 1011.5 |
| 20260510113954 | 17 | 252 | 0.0 | 0.0 | 0.00 | 0.00 | 0.00 | 44 | 1011.6 |
| 20260510113449 | 17 | 252 | 0.0 | 0.0 | 0.00 | 0.00 | 0.00 | 44 | 1011.4 |
| 20260510112948 | 17 | 252 | 0.0 | 0.0 | 0.00 | 0.00 | 0.00 | 43 | 1011.5 |
| 20260510112444 | 17 | 252 | 0.0 | 0.0 | 0.00 | 0.00 | 0.00 | 40 | 1011.6 |
| 20260510111941 | 17 | 252 | 0.0 | 0.0 | 0.00 | 0.00 | 0.00 | 42 | 1011.4 |
| 20260510111437 | 17 | 252 | 0.0 | 0.0 | 0.00 | 0.00 | 0.00 | 42 | 1011.4 |
| 20260510110933 | 17 | 252 | 0.0 | 0.0 | 0.00 | 0.00 | 0.00 | 44 | 1011.2 |
| 20260510110429 | 18 | 251 | 0.0 | 0.0 | 0.00 | 0.00 | 0.00 | 42 | 1011.1 |
| 20260510105926 | 18 | 249 | 0.0 | 0.0 | 0.00 | 0.00 | 0.00 | 40 | 1011.0 |
| 20260510105421 | 18 | 249 | 0.0 | 0.0 | 0.00 | 0.00 | 0.00 | 40 | 1010.9 |
| 20260510104916 | 18 | 251 | 0.0 | 0.0 | 0.00 | 0.00 | 0.00 | 41 | 1010.9 |
| 20260510104413 | 18 | 252 | 0.0 | 0.0 | 0.00 | 0.00 | 0.00 | 39 | 1010.7 |
| 20260510103910 | 18 | 252 | 0.0 | 0.0 | 0.00 | 0.00 | 0.00 | 37 | 1010.9 |
| 20260510103407 | 18 | 252 | 0.0 | 0.0 | 0.00 | 0.00 | 0.00 | 37 | 1010.9 |
| 20260510102902 | 19 | 252 | 0.0 | 0.0 | 0.00 | 0.00 | 0.00 | 37 | 1010.9 |
| 20260510102358 | 19 | 252 | 0.0 | 0.0 | 0.00 | 0.00 | 0.00 | 36 | 1010.9 |
| 20260510101856 | 19 | 252 | 0.0 | 0.0 | 0.00 | 0.00 | 0.00 | 36 | 1010.5 |
| 20260510101354 | 19 | 252 | 0.0 | 0.0 | 0.00 | 0.00 | 0.00 | 35 | 1010.4 |
| 20260510100850 | 19 | 252 | 0.0 | 0.0 | 0.00 | 0.00 | 0.00 | 35 | 1010.4 |
| 20260510100348 | 20 | 252 | 0.0 | 0.0 | 0.00 | 0.00 | 0.00 | 35 | 1010.2 |
| 20260510095844 | 20 | 252 | 0.0 | 0.0 | 0.00 | 0.00 | 0.00 | 34 | 1010.3 |
| 20260510095338 | 20 | 252 | 0.0 | 0.0 | 0.00 | 0.00 | 0.00 | 35 | 1010.2 |
| 20260510094832 | 20 | 252 | 0.0 | 0.0 | 0.00 | 0.00 | 0.00 | 34 | 1010.2 |
| 20260510094327 | 20 | 303 | 0.0 | 0.0 | 0.00 | 0.00 | 0.00 | 33 | 1010.3 |
| 20260510093819 | 20 | 326 | 0.0 | 0.0 | 0.00 | 0.00 | 0.00 | 33 | 1010.3 |
| 20260510093315 | 20 | 329 | 0.0 | 0.0 | 0.00 | 0.00 | 0.00 | 34 | 1010.4 |
| 20260510092811 | 20 | 331 | 0.0 | 0.0 | 0.00 | 0.00 | 0.00 | 32 | 1010.6 |
| 20260510092307 | 20 | 331 | 0.0 | 0.0 | 0.00 | 0.00 | 0.00 | 32 | 1010.3 |
| 20260510091803 | 20 | 331 | 0.0 | 0.0 | 0.00 | 0.00 | 0.00 | 31 | 1010.5 |
| 20260510091301 | 20 | 331 | 0.0 | 0.0 | 0.00 | 0.00 | 0.00 | 32 | 1010.4 |
| 20260510090757 | 20 | 335 | 0.0 | 0.0 | 0.00 | 0.00 | 0.00 | 32 | 1010.5 |
| 20260510090254 | 20 | 334 | 0.0 | 0.0 | 0.00 | 0.00 | 0.00 | 32 | 1010.2 |
| 20260510085750 | 20 | 333 | 0.0 | 0.0 | 0.00 | 0.00 | 0.00 | 32 | 1010.4 |
| 20260510085244 | 20 | 333 | 0.0 | 0.0 | 0.00 | 0.00 | 0.00 | 31 | 1010.1 |
| 20260510084740 | 20 | 332 | 0.0 | 0.0 | 0.00 | 0.00 | 0.00 | 32 | 1010.4 |
| 20260510084237 | 19 | 332 | 0.0 | 0.0 | 0.00 | 0.00 | 0.00 | 33 | 1010.3 |
| 20260510083734 | 19 | 330 | 0.0 | 0.0 | 0.00 | 0.00 | 0.00 | 34 | 1010.4 |
| 20260510083231 | 19 | 330 | 0.0 | 0.0 | 0.00 | 0.00 | 0.00 | 34 | 1010.4 |
| 20260510082726 | 19 | 327 | 0.0 | 0.0 | 0.00 | 0.00 | 0.00 | 35 | 1010.5 |
| 20260510082223 | 19 | 327 | 0.0 | 0.0 | 0.00 | 0.00 | 0.00 | 35 | 1010.4 |
| 20260510081722 | 20 | 321 | 4.8 | 4.8 | 0.00 | 0.00 | 0.00 | 36 | 1010.5 |
| 20260510081218 | 20 | 117 | 0.0 | 0.0 | 0.00 | 0.00 | 0.00 | 32 | 1010.4 |
| 20260510080713 | 20 | 115 | 0.0 | 0.0 | 0.00 | 0.00 | 0.00 | 34 | 1010.5 |
| 20260510080209 | 20 | 117 | 0.0 | 0.0 | 0.00 | 0.00 | 0.00 | 31 | 1010.4 |
| 20260510075706 | 21 | 122 | 0.0 | 0.0 | 0.00 | 0.00 | 0.00 | 29 | 1010.4 |
| 20260510075204 | 21 | 145 | 0.0 | 0.0 | 0.00 | 0.00 | 0.00 | 30 | 1010.2 |
| 20260510074701 | 21 | 145 | 0.0 | 0.0 | 0.00 | 0.00 | 0.00 | 30 | 1010.3 |
| 20260510074157 | 21 | 155 | 0.0 | 0.0 | 0.00 | 0.00 | 0.00 | 28 | 1010.5 |
| 20260510073654 | 22 | 154 | 0.0 | 0.0 | 0.00 | 0.00 | 0.00 | 29 | 1010.3 |
| 20260510073150 | 21 | 164 | 0.0 | 0.0 | 0.00 | 0.00 | 0.00 | 27 | 1010.3 |
| 20260510072646 | 21 | 164 | 0.0 | 0.0 | 0.00 | 0.00 | 0.00 | 27 | 1010.3 |
| 20260510072143 | 22 | 164 | 0.0 | 0.0 | 0.00 | 0.00 | 0.00 | 27 | 1010.5 |
| 20260510071639 | 22 | 169 | 0.0 | 0.0 | 0.00 | 0.00 | 0.00 | 26 | 1010.3 |
| 20260510071136 | 22 | 166 | 0.0 | 0.0 | 0.00 | 0.00 | 0.00 | 27 | 1010.3 |
| 20260510070633 | 22 | 170 | 0.0 | 0.0 | 0.00 | 0.00 | 0.00 | 26 | 1010.3 |
| 20260510070131 | 22 | 179 | 0.0 | 0.0 | 0.00 | 0.00 | 0.00 | 25 | 1010.3 |
| 20260510065626 | 22 | 180 | 0.0 | 0.0 | 0.00 | 0.00 | 0.00 | 25 | 1010.4 |
| 20260510065123 | 22 | 190 | 0.0 | 0.0 | 0.00 | 0.00 | 0.00 | 26 | 1010.3 |
| 20260510064619 | 23 | 170 | 0.0 | 0.0 | 0.00 | 0.00 | 0.00 | 26 | 1010.3 |
| 20260510064116 | 23 | 160 | 0.0 | 0.0 | 0.00 | 0.00 | 0.00 | 25 | 1010.3 |
| 20260510063613 | 23 | 186 | 0.0 | 0.0 | 0.00 | 0.00 | 0.00 | 25 | 1010.4 |
| 20260510063110 | 23 | 187 | 0.0 | 0.0 | 0.00 | 0.00 | 0.00 | 25 | 1010.3 |
| 20260510062605 | 23 | 199 | 0.0 | 0.0 | 0.00 | 0.00 | 0.00 | 25 | 1010.4 |
| 20260510062100 | 23 | 205 | 0.0 | 0.0 | 0.00 | 0.00 | 0.00 | 25 | 1010.4 |
| 20260510061551 | 24 | 156 | 0.0 | 0.0 | 0.00 | 0.00 | 0.00 | 25 | 1010.4 |
| 20260510061048 | 24 | 164 | 3.2 | 3.2 | 0.00 | 0.00 | 0.00 | 24 | 1010.4 |
| 20260510060544 | 25 | 166 | 0.0 | 0.0 | 0.00 | 0.00 | 0.00 | 24 | 1010.4 |
| 20260510060040 | 25 | 173 | 0.0 | 0.0 | 0.00 | 0.00 | 0.00 | 24 | 1010.4 |
| 20260510055537 | 25 | 167 | 0.0 | 0.0 | 0.00 | 0.00 | 0.00 | 24 | 1010.5 |
| 20260510055035 | 25 | 157 | 0.0 | 0.0 | 0.00 | 0.00 | 0.00 | 23 | 1010.4 |
| 20260510054530 | 25 | 154 | 0.0 | 0.0 | 0.00 | 0.00 | 0.00 | 23 | 1010.4 |
| 20260510054025 | 25 | 148 | 0.0 | 0.0 | 0.00 | 0.00 | 0.00 | 25 | 1010.5 |
| 20260510053521 | 25 | 147 | 0.0 | 0.0 | 0.00 | 0.00 | 0.00 | 25 | 1010.4 |
| 20260510053018 | 25 | 147 | 0.0 | 0.0 | 0.00 | 0.00 | 0.00 | 24 | 1010.2 |
| 20260510052514 | 25 | 146 | 0.0 | 0.0 | 0.00 | 0.00 | 0.00 | 24 | 1010.2 |
| 20260510052010 | 25 | 169 | 4.8 | 4.8 | 0.00 | 0.00 | 0.00 | 24 | 1010.5 |
| 20260510051505 | 25 | 184 | 0.0 | 0.0 | 0.00 | 0.00 | 0.00 | 23 | 1010.5 |
| 20260510051002 | 25 | 156 | 0.0 | 0.0 | 0.00 | 0.00 | 0.00 | 24 | 1010.5 |
| 20260510050459 | 26 | 161 | 0.0 | 0.0 | 0.00 | 0.00 | 0.00 | 22 | 1010.4 |
| 20260510045956 | 25 | 182 | 1.6 | 3.2 | 0.00 | 0.00 | 0.00 | 23 | 1010.3 |
| 20260510045454 | 25 | 172 | 6.4 | 6.4 | 0.00 | 0.00 | 0.00 | 23 | 1010.4 |
| 20260510044950 | 25 | 166 | 3.2 | 4.8 | 0.00 | 0.00 | 0.00 | 23 | 1010.4 |
| 20260510044447 | 25 | 160 | 3.2 | 4.8 | 0.00 | 0.00 | 0.00 | 23 | 1010.4 |
| 20260510043944 | 25 | 142 | 1.6 | 3.2 | 0.00 | 0.00 | 0.00 | 23 | 1010.5 |
| 20260510043439 | 25 | 149 | 6.4 | 6.4 | 0.00 | 0.00 | 0.00 | 23 | 1010.5 |
| 20260510042938 | 24 | 162 | 0.0 | 0.0 | 0.00 | 0.00 | 0.00 | 25 | 1010.5 |
| 20260510042434 | 23 | 165 | 0.0 | 1.6 | 0.00 | 0.00 | 0.00 | 27 | 1010.3 |
| 20260510041929 | 23 | 166 | 0.0 | 0.0 | 0.00 | 0.00 | 0.00 | 29 | 1010.4 |
| 20260510041427 | 23 | 166 | 0.0 | 0.0 | 0.00 | 0.00 | 0.00 | 30 | 1010.4 |
| 20260510040925 | 24 | 166 | 0.0 | 0.0 | 0.00 | 0.00 | 0.00 | 31 | 1010.4 |
| 20260510040422 | 25 | 196 | 0.0 | 0.0 | 0.00 | 0.00 | 0.00 | 27 | 1010.3 |
| 20260510035917 | 26 | 196 | 0.0 | 0.0 | 0.00 | 0.00 | 0.00 | 25 | 1010.1 |
| 20260510035414 | 26 | 196 | 0.0 | 0.0 | 0.00 | 0.00 | 0.00 | 24 | 1010.1 |
| 20260510034914 | 26 | 196 | 0.0 | 0.0 | 0.00 | 0.00 | 0.00 | 23 | 1010.2 |
| 20260510034413 | 26 | 196 | 0.0 | 0.0 | 0.00 | 0.00 | 0.00 | 22 | 1010.3 |
| 20260510033908 | 27 | 197 | 0.0 | 0.0 | 0.00 | 0.00 | 0.00 | 21 | 1010.1 |
| 20260510033405 | 27 | 197 | 0.0 | 0.0 | 0.00 | 0.00 | 0.00 | 21 | 1010.1 |
| 20260510032902 | 27 | 197 | 0.0 | 0.0 | 0.00 | 0.00 | 0.00 | 21 | 1009.9 |
| 20260510032358 | 27 | 197 | 0.0 | 0.0 | 0.00 | 0.00 | 0.00 | 21 | 1010.0 |
| 20260510031854 | 27 | 195 | 0.0 | 0.0 | 0.00 | 0.00 | 0.00 | 21 | 1009.9 |
| 20260510031349 | 27 | 195 | 0.0 | 0.0 | 0.00 | 0.00 | 0.00 | 21 | 1009.8 |
| 20260510030849 | 27 | 195 | 0.0 | 0.0 | 0.00 | 0.00 | 0.00 | 21 | 1009.9 |
| 20260510030346 | 28 | 195 | 0.0 | 0.0 | 0.00 | 0.00 | 0.00 | 20 | 1009.8 |
| 20260510025844 | 28 | 197 | 0.0 | 0.0 | 0.00 | 0.00 | 0.00 | 20 | 1009.8 |
| 20260510025341 | 28 | 212 | 0.0 | 0.0 | 0.00 | 0.00 | 0.00 | 20 | 1009.3 |
| 20260510024838 | 28 | 213 | 0.0 | 0.0 | 0.00 | 0.00 | 0.00 | 19 | 1009.4 |
| 20260510024334 | 28 | 198 | 0.0 | 0.0 | 0.00 | 0.00 | 0.00 | 19 | 1009.5 |
| 20260510023831 | 28 | 201 | 0.0 | 0.0 | 0.00 | 0.00 | 0.00 | 19 | 1009.3 |
| 20260510023327 | 29 | 196 | 0.0 | 0.0 | 0.00 | 0.00 | 0.00 | 19 | 1009.3 |
| 20260510022824 | 30 | 205 | 0.0 | 0.0 | 0.00 | 0.00 | 0.00 | 19 | 1009.4 |
| 20260510022323 | 30 | 201 | 0.0 | 0.0 | 0.00 | 0.00 | 0.00 | 18 | 1009.3 |
| 20260510021823 | 30 | 194 | 0.0 | 0.0 | 0.00 | 0.00 | 0.00 | 18 | 1009.1 |
| 20260510021321 | 31 | 193 | 0.0 | 0.0 | 0.00 | 0.00 | 0.00 | 17 | 1009.1 |
| 20260510020817 | 31 | 191 | 0.0 | 0.0 | 0.00 | 0.00 | 0.00 | 17 | 1008.9 |
| 20260510020312 | 31 | 189 | 0.0 | 0.0 | 0.00 | 0.00 | 0.00 | 17 | 1008.9 |
| 20260510015808 | 31 | 188 | 0.0 | 1.6 | 0.00 | 0.00 | 0.00 | 17 | 1008.7 |
| 20260510015306 | 31 | 187 | 1.6 | 3.2 | 0.00 | 0.00 | 0.00 | 16 | 1008.7 |
| 20260510014759 | 32 | 195 | 3.2 | 9.7 | 0.00 | 0.00 | 0.00 | 16 | 1008.9 |
| 20260510014256 | 32 | 197 | 0.0 | 0.0 | 0.00 | 0.00 | 0.00 | 16 | 1008.7 |
| 20260510013753 | 32 | 197 | 0.0 | 0.0 | 0.00 | 0.00 | 0.00 | 16 | 1008.5 |
| 20260510013248 | 32 | 185 | 0.0 | 1.6 | 0.00 | 0.00 | 0.00 | 15 | 1008.7 |
| 20260510012749 | 33 | 179 | 0.0 | 1.6 | 0.00 | 0.00 | 0.00 | 15 | 1008.4 |
| 20260510012243 | 33 | 181 | 0.0 | 0.0 | 0.00 | 0.00 | 0.00 | 15 | 1008.5 |
| 20260510011738 | 33 | 182 | 0.0 | 0.0 | 0.00 | 0.00 | 0.00 | 15 | 1008.4 |
| 20260510011233 | 33 | 182 | 0.0 | 1.6 | 0.00 | 0.00 | 0.00 | 15 | 1008.7 |
| 20260510010731 | 33 | 184 | 1.6 | 3.2 | 0.00 | 0.00 | 0.00 | 14 | 1008.5 |
| 20260510010227 | 33 | 202 | 1.6 | 3.2 | 0.00 | 0.00 | 0.00 | 15 | 1008.4 |
| 20260510005724 | 33 | 214 | 0.0 | 1.6 | 0.00 | 0.00 | 0.00 | 15 | 1008.8 |
| 20260510005221 | 34 | 208 | 1.6 | 1.6 | 0.00 | 0.00 | 0.00 | 15 | 1008.5 |
| 20260510004719 | 34 | 222 | 0.0 | 0.0 | 0.00 | 0.00 | 0.00 | 15 | 1008.5 |
| 20260510004216 | 34 | 231 | 0.0 | 0.0 | 0.00 | 0.00 | 0.00 | 16 | 1008.3 |
| 20260510003714 | 34 | 216 | 0.0 | 0.0 | 0.00 | 0.00 | 0.00 | 14 | 1008.5 |
| 20260510003209 | 35 | 224 | 0.0 | 0.0 | 0.00 | 0.00 | 0.00 | 15 | 1008.5 |
| 20260510002708 | 35 | 228 | 1.6 | 3.2 | 0.00 | 0.00 | 0.00 | 15 | 1008.7 |
| 20260510002206 | 35 | 270 | 6.4 | 11.3 | 0.00 | 0.00 | 0.00 | 14 | 1008.5 |
| 20260510001703 | 34 | 222 | 0.0 | 0.0 | 0.00 | 0.00 | 0.00 | 14 | 1008.7 |
| 20260510001202 | 35 | 205 | 0.0 | 1.6 | 0.00 | 0.00 | 0.00 | 15 | 1008.7 |
| 20260510000702 | 35 | 303 | 8.0 | 9.7 | 0.00 | 0.00 | 0.00 | 14 | 1008.7 |
| 20260510000159 | 35 | 235 | 4.8 | 9.7 | 0.00 | 0.00 | 0.00 | 14 | 1008.7 |
| 20260509235656 | 35 | 217 | 6.4 | 9.7 | 0.00 | 0.00 | 0.00 | 14 | 1008.7 |
| 20260509235152 | 35 | 257 | 0.0 | 0.0 | 0.00 | 0.00 | 0.00 | 16 | 1008.5 |
| 20260509234648 | 35 | 240 | 8.0 | 11.3 | 0.00 | 0.00 | 0.00 | 14 | 1008.7 |
| 20260509234146 | 35 | 218 | 3.2 | 9.7 | 0.00 | 0.00 | 0.00 | 15 | 1008.8 |
| 20260509233644 | 35 | 150 | 4.8 | 6.4 | 0.00 | 0.00 | 0.00 | 14 | 1008.8 |
| 20260509233141 | 35 | 220 | 1.6 | 3.2 | 0.00 | 0.00 | 0.00 | 15 | 1008.9 |
| 20260509232637 | 35 | 252 | 0.0 | 1.6 | 0.00 | 0.00 | 0.00 | 15 | 1008.9 |
| 20260509232134 | 35 | 224 | 8.0 | 11.3 | 0.00 | 0.00 | 0.00 | 15 | 1008.9 |
| 20260509231630 | 35 | 191 | 1.6 | 3.2 | 0.00 | 0.00 | 0.00 | 15 | 1009.0 |
| 20260509231128 | 35 | 193 | 6.4 | 9.7 | 0.00 | 0.00 | 0.00 | 14 | 1009.1 |
| 20260509230625 | 35 | 214 | 1.6 | 4.8 | 0.00 | 0.00 | 0.00 | 15 | 1009.0 |
| 20260509230122 | 34 | 178 | 1.6 | 1.6 | 0.00 | 0.00 | 0.00 | 15 | 1009.1 |
| 20260509225618 | 34 | 268 | 0.0 | 1.6 | 0.00 | 0.00 | 0.00 | 15 | 1009.2 |
| 20260509225113 | 35 | 199 | 12.9 | 17.7 | 0.00 | 0.00 | 0.00 | 15 | 1009.3 |
| 20260509224608 | 33 | 191 | 0.0 | 3.2 | 0.00 | 0.00 | 0.00 | 16 | 1009.2 |
| 20260509224106 | 33 | 173 | 3.2 | 6.4 | 0.00 | 0.00 | 0.00 | 15 | 1009.2 |
| 20260509223603 | 34 | 200 | 1.6 | 3.2 | 0.00 | 0.00 | 0.00 | 16 | 1009.3 |
| 20260509223100 | 35 | 235 | 6.4 | 12.9 | 0.00 | 0.00 | 0.00 | 15 | 1009.4 |
| 20260509222556 | 35 | 180 | 1.6 | 1.6 | 0.00 | 0.00 | 0.00 | 16 | 1009.2 |
| 20260509222052 | 33 | 225 | 3.2 | 4.8 | 0.00 | 0.00 | 0.00 | 15 | 1009.3 |
| 20260509221548 | 33 | 171 | 6.4 | 6.4 | 0.00 | 0.00 | 0.00 | 15 | 1009.4 |
| 20260509221044 | 34 | 181 | 6.4 | 6.4 | 0.00 | 0.00 | 0.00 | 15 | 1009.6 |
| 20260509220540 | 35 | 176 | 0.0 | 0.0 | 0.00 | 0.00 | 0.00 | 16 | 1009.5 |
| 20260509220037 | 34 | 164 | 0.0 | 0.0 | 0.00 | 0.00 | 0.00 | 15 | 1009.9 |
| 20260509215532 | 34 | 167 | 0.0 | 0.0 | 0.00 | 0.00 | 0.00 | 16 | 1009.6 |
| 20260509215030 | 33 | 170 | 8.0 | 9.7 | 0.00 | 0.00 | 0.00 | 15 | 1009.9 |
| 20260509214527 | 33 | 225 | 0.0 | 0.0 | 0.00 | 0.00 | 0.00 | 16 | 1009.6 |
| 20260509214023 | 34 | 215 | 0.0 | 0.0 | 0.00 | 0.00 | 0.00 | 16 | 1009.9 |
| 20260509213519 | 35 | 219 | 0.0 | 1.6 | 0.00 | 0.00 | 0.00 | 16 | 1009.9 |
| 20260509213017 | 35 | 264 | 0.0 | 0.0 | 0.00 | 0.00 | 0.00 | 16 | 1010.2 |
| 20260509212514 | 35 | 262 | 0.0 | 0.0 | 0.00 | 0.00 | 0.00 | 17 | 1010.3 |
| 20260509212011 | 34 | 162 | 0.0 | 0.0 | 0.00 | 0.00 | 0.00 | 15 | 1010.3 |
| 20260509211506 | 34 | 186 | 1.6 | 3.2 | 0.00 | 0.00 | 0.00 | 17 | 1010.6 |
| 20260509211003 | 33 | 208 | 6.4 | 9.7 | 0.00 | 0.00 | 0.00 | 16 | 1010.5 |
| 20260509210500 | 33 | 167 | 0.0 | 0.0 | 0.00 | 0.00 | 0.00 | 17 | 1010.4 |
| 20260509205956 | 33 | 175 | 11.3 | 12.9 | 0.00 | 0.00 | 0.00 | 15 | 1010.5 |
| 20260509205451 | 33 | 173 | 0.0 | 3.2 | 0.00 | 0.00 | 0.00 | 16 | 1010.7 |
| 20260509204946 | 33 | 140 | 1.6 | 3.2 | 0.00 | 0.00 | 0.00 | 15 | 1010.9 |
| 20260509204443 | 33 | 142 | 11.3 | 14.5 | 0.00 | 0.00 | 0.00 | 15 | 1010.9 |
| 20260509203939 | 33 | 197 | 3.2 | 9.7 | 0.00 | 0.00 | 0.00 | 16 | 1010.9 |
| 20260509203435 | 34 | 115 | 9.7 | 11.3 | 0.00 | 0.00 | 0.00 | 15 | 1011.1 |
| 20260509202933 | 35 | 148 | 9.7 | 12.9 | 0.00 | 0.00 | 0.00 | 15 | 1011.1 |
| 20260509202429 | 34 | 157 | 8.0 | 12.9 | 0.00 | 0.00 | 0.00 | 15 | 1011.2 |
| 20260509201924 | 35 | 162 | 12.9 | 17.7 | 0.00 | 0.00 | 0.00 | 16 | 1011.3 |
| 20260509201419 | 34 | 128 | 9.7 | 12.9 | 0.00 | 0.00 | 0.00 | 16 | 1011.3 |
| 20260509200916 | 34 | 191 | 4.8 | 9.7 | 0.00 | 0.00 | 0.00 | 16 | 1011.5 |
| 20260509200416 | 34 | 202 | 1.6 | 4.8 | 0.00 | 0.00 | 0.00 | 16 | 1011.4 |
| 20260509195913 | 33 | 259 | 1.6 | 3.2 | 0.00 | 0.00 | 0.00 | 17 | 1011.4 |
| 20260509195409 | 33 | 217 | 6.4 | 9.7 | 0.00 | 0.00 | 0.00 | 16 | 1011.6 |
| 20260509194908 | 33 | 224 | 11.3 | 16.1 | 0.00 | 0.00 | 0.00 | 17 | 1011.7 |
| 20260509194405 | 33 | 162 | 6.4 | 6.4 | 0.00 | 0.00 | 0.00 | 17 | 1011.5 |
| 20260509193901 | 33 | 155 | 1.6 | 3.2 | 0.00 | 0.00 | 0.00 | 17 | 1011.6 |
| 20260509193401 | 33 | 165 | 17.7 | 20.9 | 0.00 | 0.00 | 0.00 | 17 | 1011.8 |
| 20260509192857 | 33 | 173 | 4.8 | 4.8 | 0.00 | 0.00 | 0.00 | 17 | 1011.7 |
| 20260509192354 | 33 | 158 | 9.7 | 16.1 | 0.00 | 0.00 | 0.00 | 17 | 1011.8 |
| 20260509191849 | 33 | 169 | 11.3 | 16.1 | 0.00 | 0.00 | 0.00 | 17 | 1012.2 |
| 20260509191345 | 33 | 159 | 9.7 | 16.1 | 0.00 | 0.00 | 0.00 | 18 | 1012.3 |
| 20260509190841 | 33 | 210 | 9.7 | 11.3 | 0.00 | 0.00 | 0.00 | 17 | 1012.1 |
| 20260509190338 | 33 | 172 | 17.7 | 20.9 | 0.00 | 0.00 | 0.00 | 17 | 1012.2 |
| 20260509185835 | 33 | 166 | 3.2 | 4.8 | 0.00 | 0.00 | 0.00 | 17 | 1012.3 |
| 20260509185332 | 33 | 204 | 8.0 | 9.7 | 0.00 | 0.00 | 0.00 | 18 | 1012.5 |
| 20260509184830 | 32 | 142 | 14.5 | 20.9 | 0.00 | 0.00 | 0.00 | 18 | 1012.3 |
| 20260509184327 | 32 | 168 | 22.5 | 27.4 | 0.00 | 0.00 | 0.00 | 18 | 1012.5 |
| 20260509183823 | 32 | 161 | 6.4 | 6.4 | 0.00 | 0.00 | 0.00 | 19 | 1012.5 |
| 20260509183318 | 32 | 180 | 6.4 | 9.7 | 0.00 | 0.00 | 0.00 | 18 | 1012.7 |
| 20260509182814 | 32 | 188 | 12.9 | 22.5 | 0.00 | 0.00 | 0.00 | 18 | 1012.8 |
| 20260509182312 | 32 | 212 | 16.1 | 20.9 | 0.00 | 0.00 | 0.00 | 18 | 1012.9 |
| 20260509181809 | 32 | 144 | 6.4 | 9.7 | 0.00 | 0.00 | 0.00 | 18 | 1012.9 |
| 20260509181306 | 32 | 164 | 9.7 | 12.9 | 0.00 | 0.00 | 0.00 | 19 | 1012.8 |
| 20260509180804 | 32 | 171 | 14.5 | 17.7 | 0.00 | 0.00 | 0.00 | 19 | 1013.0 |
| 20260509180259 | 31 | 142 | 9.7 | 12.9 | 0.00 | 0.00 | 0.00 | 19 | 1013.0 |
| 20260509175756 | 31 | 167 | 1.6 | 4.8 | 0.00 | 0.00 | 0.00 | 20 | 1013.2 |
| 20260509175252 | 31 | 210 | 14.5 | 22.5 | 0.00 | 0.00 | 0.00 | 20 | 1013.3 |
| 20260509174748 | 31 | 213 | 8.0 | 11.3 | 0.00 | 0.00 | 0.00 | 20 | 1013.4 |
| 20260509174244 | 30 | 142 | 9.7 | 12.9 | 0.00 | 0.00 | 0.00 | 20 | 1013.7 |
| 20260509173740 | 31 | 155 | 19.3 | 22.5 | 0.00 | 0.00 | 0.00 | 20 | 1013.7 |
| 20260509173236 | 30 | 229 | 11.3 | 16.1 | 0.00 | 0.00 | 0.00 | 21 | 1013.7 |
| 20260509172732 | 30 | 198 | 6.4 | 9.7 | 0.00 | 0.00 | 0.00 | 22 | 1013.6 |
| 20260509172229 | 29 | 149 | 3.2 | 4.8 | 0.00 | 0.00 | 0.00 | 23 | 1013.8 |
| 20260509171724 | 29 | 192 | 3.2 | 6.4 | 0.00 | 0.00 | 0.00 | 23 | 1013.8 |
| 20260509171221 | 29 | 201 | 11.3 | 16.1 | 0.00 | 0.00 | 0.00 | 23 | 1013.7 |
| 20260509170718 | 28 | 117 | 0.0 | 1.6 | 0.00 | 0.00 | 0.00 | 26 | 1013.7 |
| 20260509170214 | 28 | 149 | 3.2 | 4.8 | 0.00 | 0.00 | 0.00 | 25 | 1013.9 |
| 20260509165712 | 28 | 177 | 3.2 | 6.4 | 0.00 | 0.00 | 0.00 | 26 | 1014.3 |
| 20260509165207 | 27 | 138 | 4.8 | 6.4 | 0.00 | 0.00 | 0.00 | 27 | 1014.0 |
| 20260509164704 | 27 | 167 | 12.9 | 16.1 | 0.00 | 0.00 | 0.00 | 26 | 1014.3 |
| 20260509164159 | 27 | 188 | 11.3 | 14.5 | 0.00 | 0.00 | 0.00 | 27 | 1014.5 |
| 20260509163657 | 27 | 164 | 3.2 | 3.2 | 0.00 | 0.00 | 0.00 | 29 | 1014.4 |
| 20260509163153 | 26 | 156 | 6.4 | 6.4 | 0.00 | 0.00 | 0.00 | 29 | 1014.6 |
| 20260509162651 | 26 | 150 | 6.4 | 9.7 | 0.00 | 0.00 | 0.00 | 29 | 1014.5 |
| 20260509162146 | 26 | 150 | 6.4 | 11.3 | 0.00 | 0.00 | 0.00 | 30 | 1014.6 |
| 20260509161642 | 26 | 146 | 4.8 | 4.8 | 0.00 | 0.00 | 0.00 | 31 | 1014.6 |
| 20260509161138 | 25 | 179 | 8.0 | 9.7 | 0.00 | 0.00 | 0.00 | 32 | 1014.6 |
| 20260509160634 | 25 | 154 | 6.4 | 9.7 | 0.00 | 0.00 | 0.00 | 32 | 1014.5 |
| 20260509160129 | 25 | 183 | 4.8 | 9.7 | 0.00 | 0.00 | 0.00 | 33 | 1014.5 |
| 20260509155626 | 25 | 184 | 6.4 | 11.3 | 0.00 | 0.00 | 0.00 | 32 | 1014.6 |
| 20260509155122 | 25 | 150 | 9.7 | 11.3 | 0.00 | 0.00 | 0.00 | 33 | 1014.7 |